COSMOS 2499 DEB, 49926

Orbit data source: Space-Track

COSMOS 2499 DEB, 49926 is space debris in LEO originally from a launch on Fri, 23 May 2014 UTC launched from the Plesetsk Missile And Space Complex (PKMTR). Debris objects in space refer to the collection of defunct objects orbiting the Earth. Examples of debris include non-operational satellites, rocket bodies, and fragments generated from explosions, collisions, or faulty payload assembly.

Loading next visibility...
Identifier
49926, 2014-028H
Orbit
LEO
Country
Flag of CISCIS
Related business
Manufacturer
TsNIIKhM
Mission
Spacecraft
Bus & Motor
Unknown
Mass
Unknown
Launch date (UTC)
2014-05-23 (12 years ago)
Launch vehicle
Unknown
Launch site
Plesetsk Missile And Space Complex (PKMTR)
Object type
Payload
Rocket body
Debris
Shape & HBR
Unknown shape, 0.1 m
Radar Cross Section
Small (<0.1 m²)

Expand to show TLE details & history
Last TLE update: 3 days ago

TLE from 3 days ago
0 COSMOS 2499 DEB
1 49926U 14028H   25347.33961246  .00010764  00000-0  27808-1 0  9994
2 49926  82.4121   3.4129 0337792  36.3758 325.9804 12.98967193193810
Epoch: 2025-12-13T08:09Z
TLE epoch observation values (Epoch: 2025-12-13T08:09:02.516Z)
Latitude
0.00003°
Longitude
158.88412°
Altitude
1,057.705 km
Speed
7.424 km/s
True Right ascension
00h 13m 39s
True Declination
0° 00' 00"
Sunlit
Object was in daylight at epoch
Visualization orbit readout
Latitude
Unknown
Longitude
Unknown
Altitude
Unknown
Speed
Unknown
Apparent Right ascension
Unknown
Apparent Declination
Unknown
Sunlit
N/A
Visualization observer readout
Local Sidereal Time
11:10:56
Azimuth
Unknown
Elevation
Unknown
Doppler factor
Unknown
Orbital elements
Apogee altitude
1,521.536 km
Perigee altitude
1,005.285 km
Semi-major axis
7,641.547 km
Eccentricity
0.03378
Inclination
82.4121°
RAAN
3.4129°
Arg. of periapsis
36.3758°
True anomaly
323.73693°
Mean anomaly
325.9804°
Eccentric anomaly
324.86661°
Mean motion
3.24916 °/min
Orbital period
110.8 mins
BSTAR
0.027808
Loading maneuver chart data...
Computing Atmospheric mass density...
Loading historical data...
Loading historical data...
Loading historical data...
Loading historical data...
Loading historical data...
Loading historical data...
Loading historical data...

Documentation

Showing up to 5 results
|